Regional Weather Roundup
Issued by NWS

Home | Current Version | Previous Version | Text Only | Print | Product List | Glossary Off
Versions: 1 2 3 4 5 6 7 8 9 10 11 12 13 14 15 16 17 18 19 20 21 22 23 24 25 26 27 28 29 30 31 32 33 34 35 36 37 38 39 40 41 42 43 44 45 46 47 48 49 50

000
ASUS43 KFSD 010810
RWRSD

WEATHER ROUNDUP FOR SOUTH DAKOTA
NATIONAL WEATHER SERVICE SIOUX FALLS SD
300 AM CDT TUE SEP 01 2015

NOTE: "FAIR" INDICATES FEW OR NO CLOUDS BELOW 12,000 FEET WITH NO
SIGNIFICANT WEATHER AND/OR OBSTRUCTIONS TO VISIBILITY.


SDZ001>005-009-010-012>017-010900-
NORTHWEST AND NORTH CENTRAL SOUTH DAKOTA

CITY           SKY/WX    TMP DP  RH WIND       PRES   REMARKS
BUFFALO          N/A     62  53  72 S3        29.85F
FAITH            N/A     63  56  78 SE12      29.90F
MOBRIDGE       CLOUDY    60  59  96 E5        29.87F
$$

SDZ012>016-024>037-041>051-057-063-072>074-010900-
SOUTHWEST AND SOUTH CENTRAL SOUTH DAKOTA

CITY           SKY/WX    TMP DP  RH WIND       PRES   REMARKS
RAPID CTY ARPT CLEAR     57  55  93 SE5       29.90F
PIERRE         MOCLDY    60  59  96 NE3       29.89S
CUSTER         PTCLDY    59  46  62 SW3       30.05F
ELLSWORTH AFB  CLEAR     61  58  90 S6        29.88F
PHILIP         PTCLDY    65  61  87 SE12      29.90F
PINE RIDGE     PTCLDY    62  51  67 SW5       29.94S
WINNER         LGT RAIN  66  61  84 NW3       29.92F
$$

SDZ004>011-016>023-039-040-010900-
NORTHEAST SOUTH DAKOTA

CITY           SKY/WX    TMP DP  RH WIND       PRES   REMARKS
ABERDEEN       CLOUDY    62  60  93 N5        29.89F
WATERTOWN      PTCLDY    66  63  90 CALM      29.89F
BROOKINGS      MOCLDY    70  64  83 SE5       29.91F
SISSETON         N/A     61  60  97 CALM      29.88S
$$

SDZ017-020-022-023-036>040-048>070-010900-
SOUTHEAST SOUTH DAKOTA

CITY           SKY/WX    TMP DP  RH WIND       PRES   REMARKS
SIOUX FALLS    PTCLDY    70  67  90 S3        29.90F
HURON          CLOUDY    65  64  97 CALM      29.87F
CHAMBERLAIN    CLOUDY    62  62  98 CALM      29.91S
MITCHELL       CLOUDY    67  65  93 CALM      29.88F
YANKTON        PTCLDY    66  64  94 E6        29.87F
$$

ABBREVIATIONS USED IN REMARKS
   TC - TEMPERATURE IN CELSIUS
  WCI - WIND CHILL INDEX
   HX - HEAT INDEX
  VSB - VISIBILITY



USA.gov is the U.S. government's official web portal to all federal, state and local government web resources and services.